NORTHERN QUEENS  -  Freeze Warning Freeze Warning        SOUTHERN QUEENS  -  Freeze Warning Freeze Warning      

Active alerts

Northern Queens
  Details for Northern Queens Freeze Warning
Southern Queens
  Details for Southern Queens Freeze Warning


WXM80 ListenWXM80 Stop

You find our weather info also at:

UK Metoffice

WeatherCloud

Weather Underground

Northeastern Weather Network

AWEKAS

Citizen Weather Observer Program (CWOP)

HAMweather, WeatherForYou, PWS Weather


Weather Underground History page Text

Daily Summary for March 25, 2017 Units:  Metric    English   Both
« Previous Day
Next Day »
Daily Weekly Monthly Yearly Custom
  High: Low: Average:
Temperature: 11.8 °C 4.4 °C 8.3 °C
Dew Point: 6 °C 3 °C 4.2 °C
Humidity: 91 % 64 % 76 %
Wind Speed: 15.3 km/h 0 km/h 5.3 km/h
Wind Gust: 24.1 km/h - -
Wind:- - ESE
Pressure: 1028.7 hPa 1016.5 hPa -
Precipitation: 0 mm    
Historical Graphs
 
 
Tabular Data for March 25, 2017
Time Temperature Dew Point Pressure Wind Wind Speed Wind Gust Humidity Rainfall Rate (Hourly)
00:02 9.6 °C 3.7 °C 1018.2 hPa SSW 9.7 km/h 19.3 km/h 67 % 0 mm
00:07 9.6 °C 3.7 °C 1018.2 hPa WSW 7.9 km/h 12.9 km/h 67 % 0 mm
00:12 9.6 °C 3.8 °C 1017.8 hPa SSW 9.7 km/h 19.3 km/h 67 % 0 mm
00:17 9.7 °C 3.6 °C 1017.8 hPa WSW 13.4 km/h 16.1 km/h 66 % 0 mm
00:19 9.7 °C 3.6 °C 1017.8 hPa SW 11.6 km/h 16.7 km/h 66 % 0 mm
00:24 9.8 °C 3.7 °C 1017.8 hPa SW 8.2 km/h 16.7 km/h 66 % 0 mm
00:29 9.8 °C 3.7 °C 1017.8 hPa West 8 km/h 14.8 km/h 66 % 0 mm
00:34 9.8 °C 3.6 °C 1017.8 hPa SW 5.5 km/h 20.4 km/h 65 % 0 mm
00:40 9.9 °C 3.6 °C 1017.5 hPa SSW 6.4 km/h 18.5 km/h 65 % 0 mm
00:45 9.9 °C 3.7 °C 1017.5 hPa SSW 7.9 km/h 24.1 km/h 65 % 0 mm
00:50 10 °C 3.5 °C 1017.5 hPa SSW 8.4 km/h 14.8 km/h 64 % 0 mm
00:55 10.1 °C 3.6 °C 1017.5 hPa SSW 6.9 km/h 18.5 km/h 64 % 0 mm
01:00 10.1 °C 3.6 °C 1017.2 hPa SSW 5.6 km/h 11.1 km/h 64 % 0 mm
01:05 10.1 °C 3.6 °C 1017.5 hPa SW 5.5 km/h 11.1 km/h 64 % 0 mm
01:10 10.1 °C 3.6 °C 1017.5 hPa SW 8.9 km/h 14.8 km/h 64 % 0 mm
01:15 10.1 °C 3.6 °C 1017.2 hPa SSW 11.4 km/h 18.5 km/h 64 % 0 mm
01:20 10.1 °C 3.6 °C 1017.5 hPa WSW 5.3 km/h 11.1 km/h 64 % 0 mm
01:25 10.1 °C 3.6 °C 1017.5 hPa SW 9.2 km/h 13 km/h 64 % 0 mm
01:30 10.1 °C 3.6 °C 1017.5 hPa SW 8.4 km/h 11.3 km/h 64 % 0 mm
01:35 10 °C 3.5 °C 1017.5 hPa WSW 4 km/h 9.7 km/h 64 % 0 mm
01:40 10.1 °C 3.6 °C 1017.5 hPa SW 11.3 km/h 18.5 km/h 64 % 0 mm
01:45 10.1 °C 3.6 °C 1017.5 hPa SW 10.3 km/h 17.7 km/h 64 % 0 mm
01:50 10.1 °C 3.6 °C 1017.5 hPa WSW 8.5 km/h 17.7 km/h 64 % 0 mm
01:55 10.1 °C 3.6 °C 1017.5 hPa SW 11.6 km/h 18.5 km/h 64 % 0 mm
02:00 10.2 °C 3.7 °C 1017.5 hPa SW 9.3 km/h 18.5 km/h 64 % 0 mm
02:05 10.2 °C 3.7 °C 1017.2 hPa SW 10.9 km/h 14.8 km/h 64 % 0 mm
02:10 10.1 °C 3.6 °C 1017.5 hPa SW 6.6 km/h 11.3 km/h 64 % 0 mm
02:15 10.1 °C 3.8 °C 1017.2 hPa SW 8.4 km/h 11.1 km/h 65 % 0 mm
02:20 10.1 °C 3.8 °C 1017.2 hPa SSW 8.7 km/h 16.7 km/h 65 % 0 mm
02:25 10 °C 3.7 °C 1017.2 hPa SW 6.9 km/h 12.9 km/h 65 % 0 mm
02:30 10 °C 3.7 °C 1017.2 hPa SSW 5.5 km/h 11.1 km/h 65 % 0 mm
02:35 9.9 °C 3.7 °C 1017.2 hPa SW 7.4 km/h 13 km/h 65 % 0 mm
02:40 9.9 °C 3.9 °C 1017.2 hPa SSW 6.4 km/h 11.1 km/h 66 % 0 mm
02:45 9.9 °C 3.9 °C 1017.2 hPa SW 3.1 km/h 9.3 km/h 66 % 0 mm
02:50 9.9 °C 3.8 °C 1017.2 hPa SW 1.6 km/h 8 km/h 66 % 0 mm
02:55 9.9 °C 3.8 °C 1017.2 hPa SW 9.5 km/h 13 km/h 66 % 0 mm
03:00 9.9 °C 3.8 °C 1017.2 hPa South 4.5 km/h 13 km/h 66 % 0 mm
03:05 9.9 °C 3.8 °C 1017.2 hPa SSW 7.4 km/h 13 km/h 66 % 0 mm
03:10 9.8 °C 4 °C 1017.2 hPa SSW 6 km/h 9.3 km/h 67 % 0 mm
03:15 9.8 °C 4 °C 1017.2 hPa SW 7.4 km/h 11.1 km/h 67 % 0 mm
03:20 9.8 °C 3.9 °C 1017.2 hPa SW 5.5 km/h 11.1 km/h 67 % 0 mm
03:25 9.8 °C 3.9 °C 1017.2 hPa SSW 3.7 km/h 6.4 km/h 67 % 0 mm
03:31 9.8 °C 3.9 °C 1016.8 hPa WNW 6.6 km/h 14.8 km/h 67 % 0 mm
03:36 9.7 °C 3.9 °C 1016.8 hPa SW 9 km/h 16.7 km/h 67 % 0 mm
03:41 9.7 °C 3.9 °C 1016.8 hPa SW 3.4 km/h 11.1 km/h 67 % 0 mm
03:46 9.7 °C 3.9 °C 1016.8 hPa South 7.1 km/h 9.3 km/h 67 % 0 mm
03:51 9.7 °C 4.1 °C 1016.8 hPa SW 5.6 km/h 7.4 km/h 68 % 0 mm
03:56 9.7 °C 4.1 °C 1016.8 hPa SW 2.4 km/h 11.1 km/h 68 % 0 mm
04:01 9.7 °C 4.1 °C 1016.5 hPa SW 8.9 km/h 11.3 km/h 68 % 0 mm
04:06 9.7 °C 4.1 °C 1016.5 hPa SW 5.3 km/h 11.1 km/h 68 % 0 mm
04:11 9.8 °C 4.2 °C 1016.5 hPa SW 3.7 km/h 11.3 km/h 68 % 0 mm
04:16 9.8 °C 4.2 °C 1016.5 hPa SW 4.2 km/h 5.6 km/h 68 % 0 mm
04:21 9.8 °C 4.2 °C 1016.5 hPa SW 9 km/h 11.3 km/h 68 % 0 mm
04:26 9.9 °C 4.3 °C 1016.5 hPa SSW 6.3 km/h 8 km/h 68 % 0 mm
04:31 9.9 °C 4.3 °C 1016.8 hPa WSW 0.3 km/h 5.6 km/h 68 % 0 mm
04:36 9.9 °C 4.3 °C 1016.8 hPa SW 6.4 km/h 7.4 km/h 68 % 0 mm
04:41 9.9 °C 4.3 °C 1016.8 hPa SW 6 km/h 13 km/h 68 % 0 mm
04:46 9.9 °C 4.3 °C 1016.8 hPa SW 2.1 km/h 5.6 km/h 68 % 0 mm
04:52 9.8 °C 4.2 °C 1016.8 hPa SSW 3.4 km/h 5.6 km/h 68 % 0 mm
04:57 9.8 °C 4.2 °C 1016.8 hPa SW 4.5 km/h 7.4 km/h 68 % 0 mm
05:02 9.8 °C 4.2 °C 1016.8 hPa SW 0.8 km/h 5.6 km/h 68 % 0 mm
05:07 9.7 °C 4.1 °C 1017.2 hPa SW 1 km/h 5.6 km/h 68 % 0 mm
05:12 9.7 °C 4.3 °C 1017.2 hPa WSW 0.2 km/h 5.6 km/h 69 % 0 mm
05:17 9.7 °C 4.3 °C 1017.5 hPa Calm   1.9 km/h 69 % 0 mm
05:22 9.6 °C 4.2 °C 1017.5 hPa Calm     69 % 0 mm
05:27 9.6 °C 4.2 °C 1017.5 hPa WSW 1.3 km/h 3.7 km/h 69 % 0 mm
05:32 9.6 °C 4.2 °C 1017.5 hPa SW 2.1 km/h 5.6 km/h 69 % 0 mm
05:37 9.5 °C 4.3 °C 1017.8 hPa SW 0.3 km/h 1.9 km/h 70 % 0 mm
05:42 9.5 °C 4.3 °C 1017.8 hPa Calm   1.9 km/h 70 % 0 mm
05:47 9.5 °C 4.3 °C 1017.8 hPa SW 1 km/h 1.9 km/h 70 % 0 mm
05:52 9.4 °C 4.2 °C 1017.8 hPa WSW 1.4 km/h 3.7 km/h 70 % 0 mm
05:57 9.2 °C 4.2 °C 1017.8 hPa WSW 0.2 km/h 1.9 km/h 71 % 0 mm
06:02 9.1 °C 4.1 °C 1017.8 hPa Calm     71 % 0 mm
06:07 8.9 °C 3.9 °C 1018.2 hPa Calm     71 % 0 mm
06:12 8.6 °C 3.4 °C 1018.2 hPa Calm     70 % 0 mm
06:17 8.4 °C 3.4 °C 1018.2 hPa Calm     71 % 0 mm
06:22 8.2 °C 3.4 °C 1018.2 hPa Calm     72 % 0 mm
06:27 7.9 °C 3.4 °C 1018.5 hPa Calm     73 % 0 mm
06:32 7.7 °C 3.3 °C 1018.5 hPa Calm     74 % 0 mm
06:37 7.5 °C 3.2 °C 1018.5 hPa Calm     74 % 0 mm
06:42 7.3 °C 3 °C 1018.8 hPa Calm     74 % 0 mm
06:47 7.2 °C 3.2 °C 1018.8 hPa Calm     76 % 0 mm
06:52 7 °C 3.1 °C 1019.2 hPa Calm     76 % 0 mm
06:57 6.8 °C 3.1 °C 1019.2 hPa Calm     77 % 0 mm
07:00 6.8 °C 3 °C 1019.2 hPa Calm     77 % 0 mm
07:05 6.7 °C 3.2 °C 1019.2 hPa WSW 1.4 km/h 3.7 km/h 78 % 0 mm
07:10 6.6 °C 3.2 °C 1019.2 hPa WSW 1.3 km/h 3.2 km/h 79 % 0 mm
07:15 6.6 °C 3.3 °C 1019.2 hPa WSW 0.3 km/h 1.9 km/h 80 % 0 mm
07:20 6.5 °C 3.1 °C 1019.2 hPa Calm     79 % 0 mm
07:25 6.5 °C 3.1 °C 1019.2 hPa Calm     79 % 0 mm
07:30 6.5 °C 3.1 °C 1019.2 hPa Calm     79 % 0 mm
07:35 6.6 °C 3.3 °C 1019.5 hPa Calm     80 % 0 mm
07:40 6.6 °C 3.5 °C 1019.2 hPa Calm     81 % 0 mm
07:45 6.6 °C 3.6 °C 1019.5 hPa Calm     81 % 0 mm
07:50 6.7 °C 3.6 °C 1019.2 hPa Calm     81 % 0 mm
07:55 6.8 °C 3.7 °C 1019.2 hPa Calm     81 % 0 mm
08:00 6.8 °C 3.8 °C 1019.2 hPa Calm     81 % 0 mm
08:05 6.9 °C 3.9 °C 1019.2 hPa Calm     81 % 0 mm
08:10 7.1 °C 4.1 °C 1019.5 hPa WSW 0.5 km/h 1.9 km/h 81 % 0 mm
08:15 7.3 °C 4.2 °C 1019.5 hPa WSW 0.6 km/h 1.9 km/h 81 % 0 mm
08:20 7.5 °C 4.4 °C 1019.9 hPa WSW 0.3 km/h 1.9 km/h 81 % 0 mm
08:25 7.7 °C 4.6 °C 1019.9 hPa Calm     81 % 0 mm
08:27 7.7 °C 4.7 °C 1019.9 hPa Calm   1.6 km/h 81 % 0 mm
08:32 7.9 °C 4.7 °C 1020.5 hPa Calm     80 % 0 mm
08:37 8.1 °C 4.9 °C 1020.5 hPa Calm   1.6 km/h 80 % 0 mm
08:42 8.3 °C 4.8 °C 1020.5 hPa Calm   1.6 km/h 79 % 0 mm
08:47 8.4 °C 4.7 °C 1020.2 hPa Calm   1.6 km/h 77 % 0 mm
08:52 8.7 °C 4.9 °C 1020.2 hPa WSW 1.6 km/h 3.2 km/h 77 % 0 mm
08:58 8.9 °C 4.7 °C 1020.2 hPa NNW 1.6 km/h 3.7 km/h 75 % 0 mm
09:03 9.2 °C 4.9 °C 1020.2 hPa North 2.3 km/h 5.6 km/h 75 % 0 mm
09:08 9.3 °C 4.9 °C 1020.5 hPa Calm   1.9 km/h 74 % 0 mm
09:13 9.5 °C 4.7 °C 1020.5 hPa Calm     72 % 0 mm
09:18 9.7 °C 4.7 °C 1020.2 hPa North 0.2 km/h 1.9 km/h 71 % 0 mm
09:23 9.8 °C 4.8 °C 1020.5 hPa NNE 2.7 km/h 5.6 km/h 71 % 0 mm
09:28 10 °C 5 °C 1020.5 hPa NNE 3.2 km/h 5.6 km/h 71 % 0 mm
09:33 10.1 °C 4.9 °C 1020.9 hPa Calm     70 % 0 mm
09:38 10.2 °C 4.9 °C 1021.2 hPa Calm     70 % 0 mm
09:43 10.1 °C 5.3 °C 1020.9 hPa NNE 0.2 km/h 1.6 km/h 72 % 0 mm
09:48 10 °C 5 °C 1020.9 hPa NNE 2.1 km/h 3.7 km/h 71 % 0 mm
09:53 9.9 °C 5.1 °C 1021.2 hPa Calm     72 % 0 mm
09:58 10 °C 5.4 °C 1020.9 hPa Calm     73 % 0 mm
10:03 10.2 °C 5.2 °C 1020.9 hPa Calm     71 % 0 mm
10:08 10.3 °C 4.8 °C 1020.9 hPa NE 3.9 km/h 5.6 km/h 69 % 0 mm
10:13 10.3 °C 4.7 °C 1020.2 hPa NE 0.5 km/h 1.9 km/h 68 % 0 mm
10:18 10.4 °C 4.8 °C 1019.9 hPa NE 1.1 km/h 1.9 km/h 68 % 0 mm
10:20 10.5 °C 4.6 °C 1019.9 hPa NE 2.3 km/h 3.7 km/h 67 % 0 mm
10:25 10.6 °C 4.7 °C 1020.2 hPa NE 0.3 km/h 1.9 km/h 67 % 0 mm
10:30 10.6 °C 4.4 °C 1020.2 hPa NE 1.4 km/h 5.6 km/h 66 % 0 mm
10:35 10.6 °C 4.9 °C 1020.9 hPa NE 0.3 km/h 1.9 km/h 68 % 0 mm
10:40 10.5 °C 4.6 °C 1020.9 hPa Calm     67 % 0 mm
10:45 10.5 °C 4.8 °C 1020.9 hPa NE 1.4 km/h 3.2 km/h 68 % 0 mm
10:50 10.6 °C 4.9 °C 1020.5 hPa NE 3.7 km/h 4.8 km/h 68 % 0 mm
10:55 10.7 °C 5 °C 1020.2 hPa North 4 km/h 6.4 km/h 68 % 0 mm
11:00 10.7 °C 5.2 °C 1020.5 hPa NNE 6.1 km/h 9.3 km/h 69 % 0 mm
11:02 10.6 °C 4.9 °C 1020.2 hPa NE 4.7 km/h 5.6 km/h 68 % 0 mm
11:07 10.3 °C 4.9 °C 1020.9 hPa North 6 km/h 9.3 km/h 69 % 0 mm
11:12 9.9 °C 4.4 °C 1020.2 hPa ENE 1.3 km/h 7.4 km/h 69 % 0 mm
11:17 9.6 °C 4.6 °C 1020.5 hPa ENE 1.6 km/h 3.2 km/h 71 % 0 mm
11:22 9.2 °C 4.1 °C 1020.5 hPa Calm   4.8 km/h 70 % 0 mm
11:27 8.9 °C 3.9 °C 1020.5 hPa Calm   4.8 km/h 71 % 0 mm
11:32 8.8 °C 4 °C 1020.9 hPa ESE 1.6 km/h 4.8 km/h 72 % 0 mm
11:37 8.8 °C 4.2 °C 1020.5 hPa Calm   3.2 km/h 73 % 0 mm
11:42 8.8 °C 4.4 °C 1020.9 hPa NE 3.2 km/h 8 km/h 74 % 0 mm
11:47 8.8 °C 4.3 °C 1020.9 hPa NE 3.2 km/h 6.4 km/h 73 % 0 mm
11:52 8.9 °C 4.5 °C 1020.9 hPa NNE 3.2 km/h 8 km/h 74 % 0 mm
11:57 9 °C 5 °C 1021.2 hPa ENE 2.6 km/h 5.6 km/h 76 % 0 mm
12:02 9.1 °C 5.7 °C 1020.9 hPa ENE 4.8 km/h 12.9 km/h 79 % 0 mm
12:05 9.1 °C 5.2 °C 1020.5 hPa East 2.9 km/h 7.4 km/h 77 % 0 mm
12:10 9.1 °C 5.5 °C 1020.5 hPa ENE 2.4 km/h 5.6 km/h 78 % 0 mm
12:15 9.2 °C 5.6 °C 1020.9 hPa ESE 0.2 km/h 1.9 km/h 78 % 0 mm
12:20 9.3 °C 5.5 °C 1021.2 hPa ESE 1.4 km/h 3.7 km/h 77 % 0 mm
12:22 9.4 °C 5.6 °C 1021.2 hPa ENE 5 km/h 7.4 km/h 77 % 0 mm
12:27 9.7 °C 5.4 °C 1020.9 hPa ESE 2.1 km/h 5.6 km/h 75 % 0 mm
12:32 9.8 °C 5.6 °C 1021.2 hPa East 1.8 km/h 3.7 km/h 75 % 0 mm
12:37 10.1 °C 5.4 °C 1021.6 hPa SE 0.5 km/h 5.6 km/h 73 % 0 mm
12:42 10.2 °C 5.4 °C 1021.6 hPa ENE 3.1 km/h 5.6 km/h 72 % 0 mm
12:47 10.3 °C 5.3 °C 1021.2 hPa East 4 km/h 8 km/h 71 % 0 mm
12:52 10.4 °C 5.2 °C 1021.2 hPa East 4.2 km/h 8 km/h 70 % 0 mm
12:57 10.4 °C 5.4 °C 1021.2 hPa East 5.1 km/h 8 km/h 71 % 0 mm
13:02 10.7 °C 5.6 °C 1021.2 hPa East 7.9 km/h 11.1 km/h 71 % 0 mm
13:07 11.1 °C 6 °C 1021.2 hPa ENE 10.3 km/h 14.8 km/h 71 % 0 mm
13:12 11.5 °C 6 °C 1021.2 hPa East 10.8 km/h 12.9 km/h 69 % 0 mm
13:17 11.8 °C 5.8 °C 1021.6 hPa ENE 8.4 km/h 14.5 km/h 67 % 0 mm
13:22 11.8 °C 5.4 °C 1021.9 hPa ENE 6.9 km/h 11.1 km/h 65 % 0 mm
13:27 11.5 °C 5.4 °C 1021.6 hPa East 6.3 km/h 9.3 km/h 66 % 0 mm
13:32 11.4 °C 5.3 °C 1021.9 hPa East 7.9 km/h 9.3 km/h 66 % 0 mm
13:37 11.3 °C 5 °C 1021.9 hPa East 8 km/h 11.1 km/h 65 % 0 mm
13:42 11.3 °C 5.2 °C 1021.6 hPa ENE 7.2 km/h 11.1 km/h 66 % 0 mm
13:47 11.3 °C 5.4 °C 1021.9 hPa ENE 8 km/h 9.7 km/h 67 % 0 mm
13:52 11.4 °C 5.3 °C 1021.9 hPa ENE 9.7 km/h 14.5 km/h 66 % 0 mm
13:57 11.4 °C 5.5 °C 1021.9 hPa ENE 8.7 km/h 13 km/h 67 % 0 mm
14:03 11.6 °C 5.4 °C 1021.6 hPa ENE 12.6 km/h 16.7 km/h 66 % 0 mm
14:08 11.7 °C 5.5 °C 1021.6 hPa ENE 9.5 km/h 11.1 km/h 66 % 0 mm
14:13 11.6 °C 5.4 °C 1021.6 hPa East 7.2 km/h 13 km/h 66 % 0 mm
14:21 11.6 °C 5.4 °C 1021.6 hPa ENE 11.3 km/h 11.3 km/h 66 % 0 mm
14:26 11.1 °C 4.8 °C 1021.6 hPa ENE 12.1 km/h 18.5 km/h 65 % 0 mm
14:31 10.6 °C 4.7 °C 1021.9 hPa ENE 5.8 km/h 11.1 km/h 67 % 0 mm
14:36 10 °C 4.6 °C 1021.9 hPa ENE 3.2 km/h 5.6 km/h 69 % 0 mm
14:41 9.7 °C 4.5 °C 1021.9 hPa East 6.1 km/h 11.3 km/h 70 % 0 mm
14:46 9.4 °C 4.4 °C 1021.9 hPa East 8.2 km/h 8.2 km/h 71 % 0 mm
14:51 9.3 °C 4.7 °C 1022.2 hPa East 8.2 km/h 11.1 km/h 73 % 0 mm
14:56 9.1 °C 4.5 °C 1022.6 hPa ENE 7.4 km/h 8 km/h 73 % 0 mm
15:01 9.1 °C 4.7 °C 1022.6 hPa East 9.2 km/h 9.7 km/h 74 % 0 mm
15:06 9.1 °C 4.7 °C 1021.9 hPa East 12.6 km/h 16.1 km/h 74 % 0 mm
15:11 9.3 °C 4.9 °C 1021.9 hPa East 11.6 km/h 13 km/h 74 % 0 mm
15:16 9.6 °C 4.9 °C 1021.9 hPa East 11.3 km/h 14.8 km/h 73 % 0 mm
15:21 9.8 °C 4.9 °C 1021.9 hPa East 10.1 km/h 14.8 km/h 72 % 0 mm
15:26 9.9 °C 5.1 °C 1021.6 hPa East 12.7 km/h 16.7 km/h 72 % 0 mm
15:31 10.2 °C 5.2 °C 1022.2 hPa ENE 10.3 km/h 13 km/h 71 % 0 mm
15:36 10.2 °C 5.2 °C 1022.2 hPa East 9.2 km/h 14.5 km/h 71 % 0 mm
15:41 10.2 °C 5.2 °C 1022.9 hPa ENE 9.2 km/h 13 km/h 71 % 0 mm
15:46 10.1 °C 5.1 °C 1022.6 hPa East 8.5 km/h 13 km/h 71 % 0 mm
15:51 9.9 °C 5.1 °C 1022.9 hPa ENE 7.2 km/h 11.3 km/h 72 % 0 mm
15:56 9.6 °C 4.8 °C 1022.9 hPa East 6.6 km/h 11.1 km/h 72 % 0 mm
16:01 9.3 °C 4.7 °C 1023.2 hPa ENE 5.5 km/h 7.4 km/h 73 % 0 mm
16:07 9.1 °C 4.7 °C 1023.2 hPa ENE 9.8 km/h 16.1 km/h 74 % 0 mm
16:12 8.8 °C 4.6 °C 1023.2 hPa NE 12.2 km/h 18.5 km/h 75 % 0 mm
16:17 8.5 °C 4.7 °C 1023.2 hPa ENE 11.1 km/h 17.7 km/h 77 % 0 mm
16:22 8.3 °C 4.7 °C 1023.9 hPa ENE 11.9 km/h 16.7 km/h 78 % 0 mm
16:27 8.2 °C 4.6 °C 1024.3 hPa ENE 9.5 km/h 14.8 km/h 78 % 0 mm
16:32 8 °C 4.6 °C 1024.3 hPa NE 14 km/h 19.3 km/h 79 % 0 mm
16:37 7.7 °C 4.4 °C 1024.3 hPa NE 15.3 km/h 22.2 km/h 80 % 0 mm
16:42 7.4 °C 4.4 °C 1024.3 hPa ENE 12.9 km/h 18.5 km/h 81 % 0 mm
16:47 7.3 °C 4.2 °C 1024.6 hPa East 15.3 km/h 20.4 km/h 81 % 0 mm
16:52 7.1 °C 4.2 °C 1024.6 hPa ENE 11.4 km/h 14.8 km/h 82 % 0 mm
16:57 6.9 °C 4.2 °C 1024.9 hPa ENE 15.3 km/h 22.2 km/h 83 % 0 mm
17:02 6.8 °C 4.3 °C 1024.6 hPa ENE 14.8 km/h 24.1 km/h 84 % 0 mm
17:07 6.7 °C 4.2 °C 1023.9 hPa NE 13.8 km/h 17.7 km/h 84 % 0 mm
17:12 6.7 °C 4.2 °C 1024.3 hPa ENE 9.5 km/h 14.8 km/h 84 % 0 mm
17:17 6.6 °C 4.3 °C 1024.3 hPa ENE 10 km/h 16.7 km/h 85 % 0 mm
17:22 6.6 °C 4.2 °C 1024.3 hPa East 9.3 km/h 16.7 km/h 85 % 0 mm
17:27 6.5 °C 4.2 °C 1024.3 hPa East 10.9 km/h 16.1 km/h 85 % 0 mm
17:32 6.5 °C 4.3 °C 1024.3 hPa East 11.1 km/h 13 km/h 86 % 0 mm
17:37 6.5 °C 4.3 °C 1024.3 hPa East 12.4 km/h 14.8 km/h 86 % 0 mm
17:42 6.5 °C 4.3 °C 1023.9 hPa East 12.2 km/h 14.8 km/h 86 % 0 mm
17:47 6.6 °C 4.4 °C 1023.6 hPa East 4.7 km/h 9.7 km/h 86 % 0 mm
17:52 6.6 °C 4.4 °C 1023.6 hPa East 8.5 km/h 11.1 km/h 86 % 0 mm
17:57 6.7 °C 4.3 °C 1023.6 hPa East 5.1 km/h 11.1 km/h 85 % 0 mm
18:02 6.7 °C 4.4 °C 1023.6 hPa ESE 2.4 km/h 5.6 km/h 85 % 0 mm
18:07 6.7 °C 4.4 °C 1023.6 hPa SE 2.3 km/h 5.6 km/h 85 % 0 mm
18:12 6.8 °C 4.4 °C 1023.6 hPa SE 0.6 km/h 3.7 km/h 85 % 0 mm
18:17 6.8 °C 4.4 °C 1023.6 hPa SE 1.3 km/h 3.7 km/h 85 % 0 mm
18:22 6.8 °C 4.3 °C 1023.6 hPa Calm     84 % 0 mm
18:27 6.9 °C 4.4 °C 1023.9 hPa Calm     84 % 0 mm
18:32 6.9 °C 4.4 °C 1024.3 hPa NNE 3.5 km/h 5.6 km/h 84 % 0 mm
18:37 6.9 °C 4.4 °C 1024.3 hPa North 5.5 km/h 12.9 km/h 84 % 0 mm
18:42 6.8 °C 4.3 °C 1024.3 hPa NNE 8 km/h 9.7 km/h 84 % 0 mm
18:47 6.8 °C 4.3 °C 1024.3 hPa NNE 4.8 km/h 11.3 km/h 84 % 0 mm
18:52 6.6 °C 4.1 °C 1024.6 hPa NNE 9.7 km/h 12.9 km/h 84 % 0 mm
18:57 6.4 °C 4.1 °C 1024.6 hPa NNE 6 km/h 6 km/h 85 % 0 mm
19:02 6.3 °C 4 °C 1024.6 hPa NE 4.3 km/h 7.4 km/h 85 % 0 mm
19:07 6.2 °C 4 °C 1025.3 hPa NE 4.8 km/h 9.7 km/h 86 % 0 mm
19:12 5.9 °C 3.9 °C 1025.3 hPa NNE 11.3 km/h 16.1 km/h 87 % 0 mm
19:17 5.8 °C 3.8 °C 1025.3 hPa NNE 6.9 km/h 13 km/h 87 % 0 mm
19:22 5.7 °C 3.8 °C 1025.6 hPa NE 3.2 km/h 9.3 km/h 88 % 0 mm
19:27 5.6 °C 3.7 °C 1026 hPa NNE 4.8 km/h 11.3 km/h 88 % 0 mm
19:32 5.5 °C 3.8 °C 1026 hPa NNE 4.8 km/h 11.3 km/h 89 % 0 mm
19:37 5.4 °C 3.8 °C 1026 hPa NE 3.2 km/h 11.3 km/h 89 % 0 mm
19:42 5.4 °C 3.9 °C 1026.3 hPa NE 4.8 km/h 9.7 km/h 90 % 0 mm
19:47 5.4 °C 3.9 °C 1026.3 hPa NE 8 km/h 12.9 km/h 90 % 0 mm
19:52 5.4 °C 3.9 °C 1026.6 hPa NE 8 km/h 19.3 km/h 90 % 0 mm
19:58 5.4 °C 3.9 °C 1026.6 hPa NNE 8.2 km/h 14.8 km/h 90 % 0 mm
20:03 5.4 °C 4.1 °C 1027 hPa NNE 8 km/h 14.8 km/h 91 % 0 mm
20:08 5.4 °C 4.1 °C 1027 hPa NE 5.8 km/h 11.1 km/h 91 % 0 mm
20:13 5.4 °C 3.9 °C 1026.6 hPa ENE 6 km/h 12.9 km/h 90 % 0 mm
20:18 5.3 °C 3.8 °C 1026.6 hPa ENE 6.1 km/h 6.4 km/h 90 % 0 mm
20:22 5.3 °C 3.8 °C 1026.6 hPa ENE 4.2 km/h 7.4 km/h 90 % 0 mm
20:28 5.4 °C 3.9 °C 1027 hPa ENE 6.4 km/h 11.1 km/h 90 % 0 mm
20:33 5.3 °C 3.8 °C 1026.6 hPa East 3.1 km/h 8 km/h 90 % 0 mm
20:38 5.3 °C 3.8 °C 1026.3 hPa SSE 4.2 km/h 7.4 km/h 90 % 0 mm
20:43 5.4 °C 3.9 °C 1027 hPa NE 4.8 km/h 5.6 km/h 90 % 0 mm
20:48 5.4 °C 3.9 °C 1027.3 hPa ENE 3.9 km/h 5.6 km/h 90 % 0 mm
20:53 5.5 °C 4 °C 1027.3 hPa ENE 8 km/h 11.3 km/h 90 % 0 mm
20:58 5.4 °C 3.9 °C 1027.3 hPa ENE 3.7 km/h 7.4 km/h 90 % 0 mm
21:03 5.4 °C 3.9 °C 1027.3 hPa East 4.2 km/h 8 km/h 90 % 0 mm
21:08 5.3 °C 3.8 °C 1027.7 hPa East 3.2 km/h 7.4 km/h 90 % 0 mm
21:13 5.2 °C 3.7 °C 1027.7 hPa ENE 3.7 km/h 7.4 km/h 90 % 0 mm
21:18 5.2 °C 3.7 °C 1027.7 hPa ENE 6.1 km/h 8 km/h 90 % 0 mm
21:23 5.1 °C 3.6 °C 1027.7 hPa ENE 4.3 km/h 6.4 km/h 90 % 0 mm
21:28 5.1 °C 3.6 °C 1027.7 hPa ENE 5 km/h 11.1 km/h 90 % 0 mm
21:34 5 °C 3.5 °C 1027.7 hPa ENE 5 km/h 8 km/h 90 % 0 mm
21:39 4.9 °C 3.4 °C 1027.7 hPa ENE 10.8 km/h 14.5 km/h 90 % 0 mm
21:44 4.9 °C 3.4 °C 1027.7 hPa ENE 7.6 km/h 11.3 km/h 90 % 0 mm
21:49 4.9 °C 3.6 °C 1027.7 hPa ENE 9.2 km/h 13 km/h 91 % 0 mm
21:54 4.8 °C 3.5 °C 1027.7 hPa ENE 6.3 km/h 13 km/h 91 % 0 mm
21:59 4.8 °C 3.5 °C 1028 hPa ENE 7.1 km/h 13 km/h 91 % 0 mm
22:04 4.8 °C 3.5 °C 1028 hPa ENE 5.3 km/h 8 km/h 91 % 0 mm
22:09 4.8 °C 3.5 °C 1028 hPa NE 8.4 km/h 14.8 km/h 91 % 0 mm
22:10 4.8 °C 3.5 °C 1028 hPa ENE 8.9 km/h 14.8 km/h 91 % 0 mm
22:15 4.8 °C 3.4 °C 1028 hPa NNE 4.8 km/h 8 km/h 91 % 0 mm
22:20 4.8 °C 3.5 °C 1028 hPa ENE 7.4 km/h 13 km/h 91 % 0 mm
22:25 4.8 °C 3.3 °C 1028 hPa ENE 6 km/h 13 km/h 90 % 0 mm
22:30 4.8 °C 3.3 °C 1028 hPa NE 5.8 km/h 13 km/h 90 % 0 mm
22:35 4.7 °C 3.2 °C 1028 hPa ENE 6.9 km/h 13 km/h 90 % 0 mm
22:40 4.7 °C 3.2 °C 1028 hPa NE 6.3 km/h 13 km/h 90 % 0 mm
22:45 4.7 °C 3.2 °C 1028 hPa ENE 8.9 km/h 14.5 km/h 90 % 0 mm
22:50 4.7 °C 3.2 °C 1028 hPa ENE 10.8 km/h 16.7 km/h 90 % 0 mm
22:55 4.6 °C 3.1 °C 1028 hPa NE 7.2 km/h 8 km/h 90 % 0 mm
23:00 4.6 °C 3.2 °C 1028 hPa ENE 10.6 km/h 16.7 km/h 91 % 0 mm
23:05 4.6 °C 3.2 °C 1028 hPa ENE 7.4 km/h 13 km/h 91 % 0 mm
23:10 4.5 °C 3.2 °C 1028.3 hPa ENE 6.3 km/h 11.1 km/h 91 % 0 mm
23:15 4.5 °C 3.2 °C 1028.3 hPa ENE 6.9 km/h 11.1 km/h 91 % 0 mm
23:20 4.5 °C 3.2 °C 1028.3 hPa ENE 7.9 km/h 9.3 km/h 91 % 0 mm
23:26 4.4 °C 3.1 °C 1028.3 hPa NE 7.6 km/h 11.1 km/h 91 % 0 mm
23:31 4.4 °C 3.1 °C 1028.3 hPa ENE 8.5 km/h 13 km/h 91 % 0 mm
23:36 4.4 °C 3.1 °C 1028.3 hPa ENE 5.8 km/h 13 km/h 91 % 0 mm
23:41 4.4 °C 3.1 °C 1028.3 hPa NNE 4.2 km/h 7.4 km/h 91 % 0 mm
23:46 4.4 °C 3.1 °C 1028.3 hPa NE 3.9 km/h 9.3 km/h 91 % 0 mm
23:51 4.4 °C 3.1 °C 1028.3 hPa NNE 5 km/h 7.4 km/h 91 % 0 mm
23:56 4.4 °C 3.1 °C 1028.7 hPa NNE 6.8 km/h 11.1 km/h 91 % 0 mm
Crab Meadow Weather
Compliments of Weather Underground - 3 mb

Script developed by  Jim McMurry - jmcmurry@mwt.net Adapted for the template by  Wim van der Kuil - Leuven-Template.eu

Astronomy: A year on Venus is 225 days.